Tracking 19575 objects as of 20-Feb-2019
HD Live streaming from Space Station
objects crossing your sky now

FLOCK 3P 49

Track FLOCK 3P 49 now!
10-day predictions
FLOCK 3P 49 is classified as:


NORAD ID: 42001
Int'l Code: 2017-008BF
Perigee: 492.7 km
Apogee: 502.7 km
Inclination: 97.4 °
Period: 94.4 minutes
Semi major axis: 6868 km
RCS: Unknown
Launch date: February 15, 2017
Source: United States (US)
Launch site: SRIHARIKOTA (SRI)
aabbcc
Your satellite tracking list
Your tracking list is empty




NASA's NSSDC Master Catalog

Two Line Element Set (TLE):
1 42001U 17008BF  19050.72075241  .00001239  00000-0  52413-4 0  9990
2 42001  97.4213 118.9719 0007287 209.1861 150.8971 15.25086913111679
Source of the keplerian elements: AFSPC